Time,TemperatureF,DewpointF,PressureIn,WindDirection,WindDirectionDegrees,WindSpeedMPH,WindSpeedGustMPH,Humidity,HourlyPrecipIn,Conditions,Clouds,dailyrainin,SoftwareType,DateUTC
2013-05-20 00:00:00,59.4,58.8,29.62,ENE,68,3.1,6.7,98,0.00,,SKC,0.00,VWS V14.01,2013-05-20 05:00:00,
2013-05-20 00:20:00,59.4,58.8,29.59,NNW,338,0.0,5.5,98,0.00,,SKC,0.00,VWS V14.01,2013-05-20 05:20:00,
2013-05-20 00:40:00,59.2,58.6,29.59,ENE,68,0.0,4.3,98,0.09,,SKC,0.09,VWS V14.01,2013-05-20 05:40:00,
2013-05-20 01:00:00,59.2,58.6,29.62,NNW,338,2.8,6.3,98,0.17,,SKC,0.17,VWS V14.01,2013-05-20 06:00:00,
2013-05-20 01:20:00,59.9,59.3,29.59,NE,45,1.5,5.9,98,0.25,,SKC,0.25,VWS V14.01,2013-05-20 06:20:00,
2013-05-20 01:40:00,60.4,59.9,29.56,NNE,22,2.8,5.9,98,0.30,,SKC,0.30,VWS V14.01,2013-05-20 06:40:00,
2013-05-20 02:00:00,60.6,60.1,29.56,NNE,22,0.0,5.5,98,0.25,,SKC,0.34,VWS V14.01,2013-05-20 07:00:00,
2013-05-20 02:20:00,60.6,60.1,29.59,ESE,112,0.0,0.0,98,0.21,,SKC,0.38,VWS V14.01,2013-05-20 07:20:00,
2013-05-20 02:40:00,60.6,60.1,29.59,ENE,68,1.5,5.9,98,0.13,,SKC,0.38,VWS V14.01,2013-05-20 07:40:00,
2013-05-20 03:00:00,59.5,59.0,29.56,NNE,22,2.8,5.9,98,0.12,,SKC,0.42,VWS V14.01,2013-05-20 08:00:00,
2013-05-20 03:20:00,58.5,57.9,29.53,NNE,22,3.6,7.4,98,0.08,,SKC,0.42,VWS V14.01,2013-05-20 08:20:00,
2013-05-20 03:40:00,57.4,56.8,29.50,NNE,22,2.3,5.5,98,0.04,,SKC,0.42,VWS V14.01,2013-05-20 08:40:00,
2013-05-20 04:00:00,56.8,56.3,29.50,NNE,22,1.8,5.9,98,0.04,,SKC,0.42,VWS V14.01,2013-05-20 09:00:00,
2013-05-20 04:20:00,55.9,55.4,29.50,NNE,22,4.6,7.0,98,0.00,,SKC,0.42,VWS V14.01,2013-05-20 09:20:00,
2013-05-20 04:40:00,55.4,54.8,29.47,ENE,68,3.3,7.4,98,0.00,,SKC,0.42,VWS V14.01,2013-05-20 09:40:00,
2013-05-20 05:00:00,54.5,54.0,29.47,NNE,22,3.1,7.4,98,0.00,,SKC,0.42,VWS V14.01,2013-05-20 10:00:00,
2013-05-20 05:20:00,53.2,52.7,29.47,East,90,2.3,8.2,98,0.00,,SKC,0.42,VWS V14.01,2013-05-20 10:20:00,
2013-05-20 05:40:00,52.9,52.3,29.44,NNE,22,4.1,7.4,98,0.00,,SKC,0.42,VWS V14.01,2013-05-20 10:40:00,
2013-05-20 06:00:00,52.7,52.2,29.44,NNE,22,3.3,6.3,98,0.00,,SKC,0.42,VWS V14.01,2013-05-20 11:00:00,
2013-05-20 06:20:00,52.5,52.0,29.47,NE,45,2.6,5.1,98,0.00,,SKC,0.42,VWS V14.01,2013-05-20 11:20:00,
2013-05-20 06:40:00,52.5,52.0,29.47,NNE,22,0.0,5.5,98,0.00,,SKC,0.42,VWS V14.01,2013-05-20 11:40:00,
2013-05-20 07:00:00,52.9,52.3,29.47,NE,45,1.8,4.3,98,0.00,,SKC,0.42,VWS V14.01,2013-05-20 12:00:00,
2013-05-20 07:20:00,53.2,52.7,29.47,ENE,68,0.0,3.9,98,0.00,,SKC,0.42,VWS V14.01,2013-05-20 12:20:00,
2013-05-20 07:40:00,53.6,53.0,29.50,NNE,22,0.0,0.0,98,0.00,,SKC,0.42,VWS V14.01,2013-05-20 12:40:00,
2013-05-20 08:00:00,54.3,53.8,29.50,NNE,22,0.0,0.0,98,0.00,,SKC,0.42,VWS V14.01,2013-05-20 13:00:00,
2013-05-20 08:20:00,55.0,54.5,29.50,NE,45,0.0,0.0,98,0.00,,SKC,0.42,VWS V14.01,2013-05-20 13:20:00,
2013-05-20 08:40:00,56.1,55.6,29.53,NE,45,0.0,0.0,98,0.00,,SKC,0.42,VWS V14.01,2013-05-20 13:40:00,
2013-05-20 09:00:00,57.6,57.0,29.53,ESE,112,1.5,5.9,98,0.00,,SKC,0.42,VWS V14.01,2013-05-20 14:00:00,
2013-05-20 09:20:00,59.9,59.3,29.53,ESE,112,0.0,7.0,98,0.00,,SKC,0.42,VWS V14.01,2013-05-20 14:20:00,
2013-05-20 09:40:00,61.3,60.8,29.53,ESE,112,0.0,0.0,98,0.00,,SKC,0.42,VWS V14.01,2013-05-20 14:40:00,
2013-05-20 10:00:00,63.5,62.9,29.53,SSW,202,3.3,9.4,98,0.00,,SKC,0.42,VWS V14.01,2013-05-20 15:00:00,
2013-05-20 10:20:00,64.6,63.1,29.53,SSW,202,3.1,14.1,95,0.00,,SKC,0.42,VWS V14.01,2013-05-20 15:20:00,
2013-05-20 10:40:00,64.8,62.7,29.53,SSE,158,3.3,15.7,93,0.00,,SKC,0.42,VWS V14.01,2013-05-20 15:40:00,
2013-05-20 11:00:00,64.9,62.6,29.53,ENE,68,2.8,9.8,92,0.00,,SKC,0.42,VWS V14.01,2013-05-20 16:00:00,
2013-05-20 11:20:00,66.0,63.0,29.56,ENE,68,1.5,8.6,90,0.00,,SKC,0.42,VWS V14.01,2013-05-20 16:20:00,
2013-05-20 11:40:00,67.1,61.8,29.56,South,180,6.4,16.8,83,0.00,,SKC,0.42,VWS V14.01,2013-05-20 16:40:00,
2013-05-20 12:00:00,67.3,61.6,29.56,SSE,158,8.7,17.2,82,0.00,,SKC,0.42,VWS V14.01,2013-05-20 17:00:00,
2013-05-20 12:20:00,67.3,60.5,29.56,SSE,158,1.5,13.3,79,0.00,,SKC,0.42,VWS V14.01,2013-05-20 17:20:00,
2013-05-20 12:40:00,70.0,59.8,29.53,East,90,4.4,18.8,70,0.00,,SKC,0.42,VWS V14.01,2013-05-20 17:40:00,
2013-05-20 13:00:00,70.5,59.5,29.53,SSE,158,3.6,16.1,68,0.00,,SKC,0.42,VWS V14.01,2013-05-20 18:00:00,
2013-05-20 13:20:00,71.6,60.1,29.53,SSE,158,4.1,14.9,67,0.00,,SKC,0.42,VWS V14.01,2013-05-20 18:20:00,
2013-05-20 13:40:00,72.7,59.8,29.53,SSE,158,4.9,18.4,64,0.00,,SKC,0.42,VWS V14.01,2013-05-20 18:40:00,
2013-05-20 14:00:00,71.6,57.5,29.53,South,180,3.1,14.9,61,0.00,,SKC,0.42,VWS V14.01,2013-05-20 19:00:00,
2013-05-20 14:20:00,72.5,56.9,29.53,SSE,158,3.6,15.7,58,0.00,,SKC,0.42,VWS V14.01,2013-05-20 19:20:00,
2013-05-20 14:40:00,69.8,57.5,29.56,East,90,1.5,13.3,65,0.00,,SKC,0.42,VWS V14.01,2013-05-20 19:40:00,
2013-05-20 15:00:00,70.2,59.9,29.56,NE,45,2.6,6.3,70,0.00,,SKC,0.42,VWS V14.01,2013-05-20 20:00:00,
2013-05-20 15:20:00,71.1,58.7,29.56,SSE,158,0.0,8.2,65,0.00,,SKC,0.42,VWS V14.01,2013-05-20 20:20:00,
2013-05-20 15:40:00,69.8,57.5,29.56,ESE,112,0.0,10.2,65,0.00,,SKC,0.42,VWS V14.01,2013-05-20 20:40:00,
2013-05-20 16:00:00,69.3,59.1,29.53,East,90,0.0,7.0,70,0.04,,SKC,0.46,VWS V14.01,2013-05-20 21:00:00,
2013-05-20 16:20:00,63.9,55.8,29.56,ENE,68,3.3,6.7,75,0.04,,SKC,0.46,VWS V14.01,2013-05-20 21:20:00,
2013-05-20 16:40:00,60.4,53.9,29.53,NNE,22,1.3,7.4,79,0.04,,SKC,0.46,VWS V14.01,2013-05-20 21:40:00,
2013-05-20 17:00:00,58.5,53.7,29.56,South,180,1.0,9.8,84,0.08,,SKC,0.50,VWS V14.01,2013-05-20 22:00:00,
2013-05-20 17:20:00,59.2,55.0,29.53,NNW,338,3.1,5.5,86,0.04,,SKC,0.50,VWS V14.01,2013-05-20 22:20:00,
2013-05-20 17:40:00,58.3,54.1,29.56,ENE,68,1.8,6.7,86,0.04,,SKC,0.50,VWS V14.01,2013-05-20 22:40:00,
2013-05-20 18:00:00,57.2,53.1,29.53,NNW,338,3.1,7.4,86,0.04,,SKC,0.50,VWS V14.01,2013-05-20 23:00:00,
2013-05-20 18:20:00,55.0,50.6,29.53,NNW,338,1.0,7.0,85,0.00,,SKC,0.50,VWS V14.01,2013-05-20 23:20:00,
2013-05-20 18:40:00,54.5,50.7,29.53,NE,45,3.6,5.9,87,0.00,,SKC,0.50,VWS V14.01,2013-05-20 23:40:00,
2013-05-20 19:00:00,52.3,48.3,29.53,NNE,22,2.8,8.6,86,0.00,,SKC,0.50,VWS V14.01,2013-05-21 00:00:00,
2013-05-20 19:20:00,51.1,47.7,29.53,NNE,22,1.5,7.0,88,0.00,,SKC,0.50,VWS V14.01,2013-05-21 00:20:00,
2013-05-20 19:40:00,50.2,47.4,29.53,East,90,2.3,9.8,90,0.00,,SKC,0.50,VWS V14.01,2013-05-21 00:40:00,
2013-05-20 20:00:00,48.9,46.4,29.53,ENE,68,0.0,8.6,91,0.00,,SKC,0.50,VWS V14.01,2013-05-21 01:00:00,
2013-05-20 20:20:00,48.2,46.0,29.56,NNE,22,0.0,7.4,92,0.00,,SKC,0.50,VWS V14.01,2013-05-21 01:20:00,
2013-05-20 20:40:00,47.7,45.7,29.59,NE,45,2.8,6.3,93,0.00,,SKC,0.50,VWS V14.01,2013-05-21 01:40:00,
2013-05-20 21:00:00,47.1,45.2,29.59,NNE,22,1.3,5.1,93,0.00,,SKC,0.50,VWS V14.01,2013-05-21 02:00:00,
2013-05-20 21:20:00,46.8,45.1,29.59,ENE,68,2.3,6.7,94,0.00,,SKC,0.50,VWS V14.01,2013-05-21 02:20:00,
2013-05-20 21:40:00,46.2,44.6,29.59,NNE,22,2.8,8.2,94,0.00,,SKC,0.50,VWS V14.01,2013-05-21 02:40:00,
2013-05-20 22:00:00,45.9,44.5,29.59,NNE,22,2.8,8.6,95,0.00,,SKC,0.50,VWS V14.01,2013-05-21 03:00:00,
2013-05-20 22:20:00,45.5,44.2,29.59,NNE,22,1.3,7.0,95,0.00,,SKC,0.50,VWS V14.01,2013-05-21 03:20:00,
2013-05-20 22:40:00,45.5,44.4,29.59,NNE,22,3.1,7.0,96,0.00,,SKC,0.50,VWS V14.01,2013-05-21 03:40:00,
2013-05-20 23:00:00,45.0,43.9,29.59,ESE,112,1.8,7.0,96,0.00,,SKC,0.50,VWS V14.01,2013-05-21 04:00:00,
2013-05-20 23:20:00,44.6,43.5,29.59,NNE,22,1.8,5.9,96,0.00,,SKC,0.50,VWS V14.01,2013-05-21 04:20:00,
2013-05-20 23:40:00,44.4,43.6,29.56,NNE,22,1.5,6.7,97,0.00,,SKC,0.50,VWS V14.01,2013-05-21 04:40:00,